�P�ʁF[MW],,,,,,
�ݔ�No.,11,22,31,34,43,46
�d��[kV],66,66,66,66,66,66
�ݔ���,����,���А�,���V��,���V��,�Ϗ��q��,�Ϗ��q�����n����
���d�[,�Ϗ��q�ϓd��,���ϓd��,�Ϗ��q�ϓd��,�щ��n���x������,�Ϗ��q�ϓd��,�Β��ϓd��
��d�[,���Е���,���Е���,�щ��n���x������,���V�x������,�Β��n��������,�Ϗ��q�����ϓd��
2022/4/1 0:00,31,10,20,10,40,6
2022/4/1 1:00,30,10,20,9,40,6
2022/4/1 2:00,30,10,20,10,42,6
2022/4/1 3:00,30,10,21,10,45,6
2022/4/1 4:00,30,10,22,11,47,6
2022/4/1 5:00,30,10,23,11,48,6
2022/4/1 6:00,29,10,21,9,46,6
2022/4/1 7:00,23,10,6,-1,40,6
2022/4/1 8:00,10,10,-17,-18,34,6
2022/4/1 9:00,2,11,-26,-24,37,7
2022/4/1 10:00,11,11,-33,-33,39,7
2022/4/1 11:00,2,11,-36,-36,37,7
2022/4/1 12:00,4,11,-38,-38,41,7
2022/4/1 13:00,13,11,-29,-27,37,7
2022/4/1 14:00,19,11,-30,-27,42,7
2022/4/1 15:00,19,11,-28,-28,40,7
2022/4/1 16:00,17,11,-10,-11,43,7
2022/4/1 17:00,25,10,12,5,44,7
2022/4/1 18:00,30,11,24,13,46,7
2022/4/1 19:00,31,11,27,14,49,8
2022/4/1 20:00,31,11,24,11,48,8
2022/4/1 21:00,31,10,23,11,46,7
2022/4/1 22:00,31,10,22,10,44,7
2022/4/1 23:00,30,10,20,10,41,6
2022/4/2 0:00,32,10,21,10,42,6
2022/4/2 1:00,31,10,21,10,42,6
2022/4/2 2:00,31,10,21,10,44,6
2022/4/2 3:00,30,10,22,10,47,6
2022/4/2 4:00,31,10,23,11,49,6
2022/4/2 5:00,31,10,23,11,50,6
2022/4/2 6:00,30,10,20,9,47,6
2022/4/2 7:00,24,10,0,-6,41,5
2022/4/2 8:00,13,10,-22,-22,33,5
2022/4/2 9:00,1,10,-38,-34,33,6
2022/4/2 10:00,4,11,-36,-35,35,6
2022/4/2 11:00,9,11,-40,-36,37,6
2022/4/2 12:00,-3,11,-34,-29,37,6
2022/4/2 13:00,-6,10,-32,-28,33,6
2022/4/2 14:00,-2,11,-28,-26,35,6
2022/4/2 15:00,1,11,-36,-33,32,6
2022/4/2 16:00,2,11,-24,-24,35,6
2022/4/2 17:00,15,11,-4,-10,38,6
2022/4/2 18:00,26,11,16,6,41,6
2022/4/2 19:00,28,11,23,11,45,7
2022/4/2 20:00,28,11,23,10,45,7
2022/4/2 21:00,28,10,22,10,43,7
2022/4/2 22:00,28,10,21,10,41,6
2022/4/2 23:00,28,10,20,9,39,6
2022/4/3 0:00,30,10,20,9,40,6
2022/4/3 1:00,29,10,19,9,39,6
2022/4/3 2:00,29,10,20,10,41,6
2022/4/3 3:00,29,10,21,10,43,6
2022/4/3 4:00,29,11,21,10,45,6
2022/4/3 5:00,28,10,22,10,46,5
2022/4/3 6:00,27,10,20,9,43,5
2022/4/3 7:00,20,11,2,-4,35,5
2022/4/3 8:00,7,10,-20,-19,29,5
2022/4/3 9:00,-6,11,-40,-36,27,5
2022/4/3 10:00,-9,11,-51,-44,26,5
2022/4/3 11:00,-10,11,-53,-45,25,5
2022/4/3 12:00,-10,11,-53,-45,24,5
2022/4/3 13:00,-10,11,-52,-45,24,5
2022/4/3 14:00,-10,11,-51,-44,24,5
2022/4/3 15:00,-8,11,-45,-40,25,5
2022/4/3 16:00,1,11,-25,-24,28,5
2022/4/3 17:00,13,11,-3,-8,33,5
2022/4/3 18:00,24,11,14,4,38,6
2022/4/3 19:00,27,11,22,10,42,6
2022/4/3 20:00,27,11,22,10,43,7
2022/4/3 21:00,27,10,21,10,41,6
2022/4/3 22:00,27,10,20,9,39,6
2022/4/3 23:00,27,10,19,9,37,5
2022/4/4 0:00,28,10,19,9,38,5
2022/4/4 1:00,27,10,19,9,38,5
2022/4/4 2:00,27,10,20,9,40,5
2022/4/4 3:00,27,10,20,10,43,5
2022/4/4 4:00,27,10,21,10,45,6
2022/4/4 5:00,27,10,22,10,46,5
2022/4/4 6:00,27,10,21,9,45,6
2022/4/4 7:00,21,10,5,-2,39,5
2022/4/4 8:00,9,11,-23,-23,33,6
2022/4/4 9:00,-2,11,-41,-36,34,7
2022/4/4 10:00,-4,11,-48,-41,34,7
2022/4/4 11:00,-4,11,-49,-42,33,7
2022/4/4 12:00,-4,11,-49,-41,32,7
2022/4/4 13:00,-5,11,-50,-43,30,7
2022/4/4 14:00,-4,11,-48,-41,32,7
2022/4/4 15:00,-2,11,-41,-36,33,7
2022/4/4 16:00,6,11,-25,-25,35,7
2022/4/4 17:00,18,11,-3,-10,40,7
2022/4/4 18:00,28,11,20,10,43,7
2022/4/4 19:00,30,11,26,14,46,7
2022/4/4 20:00,30,10,24,12,45,7
2022/4/4 21:00,29,10,22,11,43,7
2022/4/4 22:00,30,10,21,10,40,6
2022/4/4 23:00,30,10,20,10,38,6
2022/4/5 0:00,31,10,19,10,38,6
2022/4/5 1:00,30,10,19,9,38,6
2022/4/5 2:00,29,10,19,9,39,6
2022/4/5 3:00,29,10,20,10,43,6
2022/4/5 4:00,29,10,21,10,45,5
2022/4/5 5:00,29,10,21,11,46,5
2022/4/5 6:00,29,10,21,10,44,5
2022/4/5 7:00,24,10,10,0,38,5
2022/4/5 8:00,15,11,-7,-13,34,6
2022/4/5 9:00,1,10,-23,-26,36,7
2022/4/5 10:00,-3,11,-46,-41,34,7
2022/4/5 11:00,-4,11,-49,-42,33,7
2022/4/5 12:00,-4,11,-50,-42,32,7
2022/4/5 13:00,-5,11,-50,-42,29,7
2022/4/5 14:00,-4,11,-47,-41,31,7
2022/4/5 15:00,-2,11,-41,-36,32,7
2022/4/5 16:00,7,11,-24,-24,35,7
2022/4/5 17:00,18,11,-3,-9,39,7
2022/4/5 18:00,28,10,16,6,42,7
2022/4/5 19:00,31,10,23,11,45,7
2022/4/5 20:00,30,10,23,11,44,7
2022/4/5 21:00,30,10,22,10,42,7
2022/4/5 22:00,30,10,21,10,39,6
2022/4/5 23:00,29,10,19,9,36,6
2022/4/6 0:00,31,10,19,10,37,6
2022/4/6 1:00,30,10,19,9,36,5
2022/4/6 2:00,29,10,19,10,38,5
2022/4/6 3:00,29,10,20,10,41,5
2022/4/6 4:00,29,10,20,10,43,5
2022/4/6 5:00,29,10,21,10,44,5
2022/4/6 6:00,29,10,21,10,43,5
2022/4/6 7:00,29,10,20,9,40,6
2022/4/6 8:00,29,11,17,8,38,6
2022/4/6 9:00,29,11,22,12,38,7
2022/4/6 10:00,30,10,20,9,0,7
2022/4/6 11:00,31,11,10,2,0,8
2022/4/6 12:00,24,11,4,-2,0,7
2022/4/6 13:00,25,11,-7,-13,0,7
2022/4/6 14:00,12,11,-36,-33,0,7
2022/4/6 15:00,5,11,-30,-29,0,7
2022/4/6 16:00,13,10,-18,-19,0,7
2022/4/6 17:00,20,10,-1,-7,0,7
2022/4/6 18:00,28,10,16,6,34,7
2022/4/6 19:00,30,10,23,11,47,7
2022/4/6 20:00,30,10,23,11,47,8
2022/4/6 21:00,30,10,23,11,44,7
2022/4/6 22:00,30,10,21,10,42,6
2022/4/6 23:00,30,10,20,10,39,6
2022/4/7 0:00,31,10,21,10,40,6
2022/4/7 1:00,31,10,23,13,40,6
2022/4/7 2:00,30,10,21,11,41,6
2022/4/7 3:00,30,10,21,10,44,6
2022/4/7 4:00,30,10,22,10,46,6
2022/4/7 5:00,30,10,22,11,47,6
2022/4/7 6:00,29,10,20,9,46,5
2022/4/7 7:00,21,10,2,-4,40,5
2022/4/7 8:00,11,10,-22,-22,33,6
2022/4/7 9:00,2,10,-34,-31,31,7
2022/4/7 10:00,1,11,-42,-38,0,7
2022/4/7 11:00,-3,11,-46,-40,0,7
2022/4/7 12:00,-2,11,-42,-38,0,7
2022/4/7 13:00,-4,11,-47,-41,0,7
2022/4/7 14:00,-2,11,-39,-35,0,7
2022/4/7 15:00,10,10,-14,-16,0,7
2022/4/7 16:00,19,11,2,-4,0,7
2022/4/7 17:00,26,11,17,7,23,7
2022/4/7 18:00,31,10,23,12,46,7
2022/4/7 19:00,31,10,34,22,48,8
2022/4/7 20:00,31,10,34,22,47,8
2022/4/7 21:00,30,10,31,19,44,7
2022/4/7 22:00,30,10,31,20,42,7
2022/4/7 23:00,30,10,30,20,39,6
2022/4/8 0:00,31,10,31,21,40,6
2022/4/8 1:00,31,10,30,20,40,6
2022/4/8 2:00,31,10,31,20,42,6
2022/4/8 3:00,30,10,31,20,45,6
2022/4/8 4:00,30,10,32,21,47,6
2022/4/8 5:00,29,10,32,21,48,6
2022/4/8 6:00,30,10,33,21,46,6
2022/4/8 7:00,30,10,32,20,43,6
2022/4/8 8:00,29,11,22,13,40,6
2022/4/8 9:00,24,10,2,0,39,7
2022/4/8 10:00,16,11,-17,-18,38,7
2022/4/8 11:00,5,11,-28,-28,39,7
2022/4/8 12:00,16,11,-14,-13,43,7
2022/4/8 13:00,11,11,-19,-17,36,7
2022/4/8 14:00,12,11,-20,-18,36,7
2022/4/8 15:00,15,11,-28,-25,34,7
2022/4/8 16:00,10,11,-15,-16,36,7
2022/4/8 17:00,20,10,6,-1,41,7
2022/4/8 18:00,28,10,24,14,43,7
2022/4/8 19:00,31,10,30,18,46,7
2022/4/8 20:00,31,10,24,12,45,7
2022/4/8 21:00,30,10,24,13,43,7
2022/4/8 22:00,30,10,24,13,40,6
2022/4/8 23:00,30,10,25,15,38,6
2022/4/9 0:00,31,10,28,19,38,6
2022/4/9 1:00,30,10,26,16,37,6
2022/4/9 2:00,29,10,27,17,39,6
2022/4/9 3:00,29,10,29,19,42,5
2022/4/9 4:00,29,10,29,19,44,5
2022/4/9 5:00,29,10,29,18,45,5
2022/4/9 6:00,27,10,29,19,42,5
2022/4/9 7:00,25,10,13,7,37,5
2022/4/9 8:00,11,10,-13,-13,30,5
2022/4/9 9:00,-3,10,-27,-25,30,5
2022/4/9 10:00,-8,10,-34,-33,30,6
2022/4/9 11:00,-9,11,-40,-35,28,6
2022/4/9 12:00,-9,10,-45,-38,27,6
2022/4/9 13:00,-10,10,-44,-37,26,6
2022/4/9 14:00,-8,10,-40,-34,26,5
2022/4/9 15:00,-1,11,-29,-25,29,5
2022/4/9 16:00,6,10,-11,-13,31,5
2022/4/9 17:00,16,10,14,7,36,6
2022/4/9 18:00,25,10,27,17,39,6
2022/4/9 19:00,27,10,32,20,43,6
2022/4/9 20:00,27,10,32,20,42,7
2022/4/9 21:00,27,10,29,18,40,6
2022/4/9 22:00,27,10,28,17,38,6
2022/4/9 23:00,27,10,27,17,36,6
2022/4/10 0:00,29,10,27,18,37,6
2022/4/10 1:00,28,10,27,18,36,5
2022/4/10 2:00,28,10,27,17,37,5
2022/4/10 3:00,27,10,28,18,40,5
2022/4/10 4:00,27,10,28,18,42,5
2022/4/10 5:00,27,10,27,17,42,5
2022/4/10 6:00,26,10,25,16,40,5
2022/4/10 7:00,25,10,14,8,35,5
2022/4/10 8:00,19,10,-9,-9,29,5
2022/4/10 9:00,4,10,-23,-20,27,5
2022/4/10 10:00,-7,11,-35,-29,26,5
2022/4/10 11:00,-10,11,-31,-26,25,5
2022/4/10 12:00,-9,11,-34,-29,24,5
2022/4/10 13:00,7,11,-8,-10,30,5
2022/4/10 14:00,17,11,6,1,33,5
2022/4/10 15:00,21,10,8,2,34,5
2022/4/10 16:00,21,11,12,6,34,5
2022/4/10 17:00,19,10,18,10,34,5
2022/4/10 18:00,24,11,28,17,38,5
2022/4/10 19:00,27,10,31,20,41,6
2022/4/10 20:00,27,10,31,19,42,6
2022/4/10 21:00,26,10,30,19,40,6
2022/4/10 22:00,27,10,29,18,38,6
2022/4/10 23:00,26,10,27,18,35,5
2022/4/11 0:00,28,10,28,19,35,5
2022/4/11 1:00,27,10,26,17,35,5
2022/4/11 2:00,27,10,27,17,37,5
2022/4/11 3:00,27,10,29,19,40,5
2022/4/11 4:00,27,10,28,18,42,5
2022/4/11 5:00,27,10,28,18,43,5
2022/4/11 6:00,26,10,28,17,41,5
2022/4/11 7:00,26,10,24,14,37,5
2022/4/11 8:00,21,10,17,9,34,6
2022/4/11 9:00,13,11,7,4,36,7
2022/4/11 10:00,3,11,-17,-15,34,7
2022/4/11 11:00,-1,11,-32,-27,32,7
2022/4/11 12:00,-3,11,-37,-33,32,7
2022/4/11 13:00,-4,11,-38,-33,29,6
2022/4/11 14:00,-1,11,-34,-29,31,6
2022/4/11 15:00,4,11,-24,-22,33,6
2022/4/11 16:00,12,11,-8,-10,36,6
2022/4/11 17:00,21,11,8,2,39,6
2022/4/11 18:00,28,11,23,13,41,6
2022/4/11 19:00,30,11,31,20,44,7
2022/4/11 20:00,30,10,30,18,43,7
2022/4/11 21:00,29,10,28,17,40,6
2022/4/11 22:00,29,10,27,16,38,6
2022/4/11 23:00,29,10,26,17,35,5
2022/4/12 0:00,30,10,26,16,35,5
2022/4/12 1:00,29,10,25,15,34,5
2022/4/12 2:00,28,10,22,13,36,5
2022/4/12 3:00,28,10,24,14,39,5
2022/4/12 4:00,28,10,25,15,41,5
2022/4/12 5:00,28,10,25,15,42,5
2022/4/12 6:00,27,10,22,12,40,5
2022/4/12 7:00,21,10,8,2,35,5
2022/4/12 8:00,11,10,-14,-14,30,5
2022/4/12 9:00,1,11,-27,-23,32,6
2022/4/12 10:00,-2,11,-30,-24,0,6
2022/4/12 11:00,16,11,-17,-16,0,6
2022/4/12 12:00,20,11,-34,-30,0,6
2022/4/12 13:00,10,11,-42,-35,0,6
2022/4/12 14:00,7,11,-37,-31,0,6
2022/4/12 15:00,15,11,-26,-24,0,6
2022/4/12 16:00,13,11,-12,-15,0,6
2022/4/12 17:00,22,11,5,-1,2,6
2022/4/12 18:00,29,11,22,12,40,6
2022/4/12 19:00,30,11,25,14,43,6
2022/4/12 20:00,29,11,25,13,42,7
2022/4/12 21:00,29,10,24,13,39,6
2022/4/12 22:00,29,10,24,14,37,6
2022/4/12 23:00,29,10,22,13,34,5
2022/4/13 0:00,30,10,22,14,34,5
2022/4/13 1:00,29,10,22,14,33,5
2022/4/13 2:00,28,10,23,14,34,5
2022/4/13 3:00,28,10,23,14,37,5
2022/4/13 4:00,28,10,24,14,39,5
2022/4/13 5:00,28,10,24,14,40,5
2022/4/13 6:00,28,10,24,14,39,5
2022/4/13 7:00,26,10,21,12,35,5
2022/4/13 8:00,21,10,19,11,35,5
2022/4/13 9:00,19,10,18,11,34,7
2022/4/13 10:00,20,11,13,6,0,7
2022/4/13 11:00,17,11,9,4,0,7
2022/4/13 12:00,20,11,14,8,0,7
2022/4/13 13:00,24,10,17,11,0,7
2022/4/13 14:00,25,11,13,7,0,7
2022/4/13 15:00,21,11,1,-4,0,7
2022/4/13 16:00,20,11,13,7,0,7
2022/4/13 17:00,23,10,15,7,27,7
2022/4/13 18:00,28,10,22,12,42,7
2022/4/13 19:00,31,10,30,18,45,7
2022/4/13 20:00,31,11,30,18,45,7
2022/4/13 21:00,30,10,28,16,42,7
2022/4/13 22:00,30,10,27,16,39,6
2022/4/13 23:00,29,10,25,15,36,5
2022/4/14 0:00,31,10,24,15,37,5
2022/4/14 1:00,30,10,24,15,36,5
2022/4/14 2:00,29,10,25,15,38,5
2022/4/14 3:00,29,10,26,16,41,5
2022/4/14 4:00,29,10,26,16,43,5
2022/4/14 5:00,29,10,26,15,43,5
2022/4/14 6:00,28,10,21,12,41,5
2022/4/14 7:00,20,10,8,3,36,5
2022/4/14 8:00,10,10,-7,-7,31,5
2022/4/14 9:00,3,11,-13,-10,33,6
2022/4/14 10:00,0,11,-8,-2,33,6
2022/4/14 11:00,4,11,-7,-1,33,6
2022/4/14 12:00,-1,11,-4,0,35,7
2022/4/14 13:00,1,11,8,8,34,6
2022/4/14 14:00,8,11,6,6,37,6
2022/4/14 15:00,10,11,5,4,37,6
2022/4/14 16:00,18,11,15,9,38,7
2022/4/14 17:00,23,11,18,10,41,7
2022/4/14 18:00,28,10,25,15,43,7
2022/4/14 19:00,31,10,30,17,46,7
2022/4/14 20:00,31,10,29,17,45,7
2022/4/14 21:00,30,10,29,17,43,7
2022/4/14 22:00,30,10,27,17,40,6
2022/4/14 23:00,29,10,25,15,37,5
2022/4/15 0:00,30,10,25,15,37,5
2022/4/15 1:00,30,10,25,15,36,5
2022/4/15 2:00,29,10,25,15,38,5
2022/4/15 3:00,29,10,28,17,41,5
2022/4/15 4:00,29,10,28,18,43,5
2022/4/15 5:00,29,10,28,17,44,5
2022/4/15 6:00,28,10,29,17,42,5
2022/4/15 7:00,25,10,25,15,38,5
2022/4/15 8:00,21,10,18,9,36,6
2022/4/15 9:00,19,10,15,7,42,7
2022/4/15 10:00,17,10,5,0,43,7
2022/4/15 11:00,12,11,-10,-12,40,7
2022/4/15 12:00,7,11,-17,-17,39,7
2022/4/15 13:00,10,11,-8,-11,38,7
2022/4/15 14:00,12,11,-5,-8,40,7
2022/4/15 15:00,12,11,-2,-6,40,7
2022/4/15 16:00,11,11,-13,-15,39,7
2022/4/15 17:00,15,11,-2,-7,39,7
2022/4/15 18:00,26,10,18,9,42,7
2022/4/15 19:00,30,10,29,17,45,7
2022/4/15 20:00,30,10,30,18,45,7
2022/4/15 21:00,30,10,29,18,42,7
2022/4/15 22:00,29,10,29,18,40,6
2022/4/15 23:00,29,10,26,16,37,6
2022/4/16 0:00,30,10,26,16,37,5
2022/4/16 1:00,29,10,27,17,37,5
2022/4/16 2:00,29,10,25,16,38,5
2022/4/16 3:00,29,10,27,17,41,5
2022/4/16 4:00,29,10,28,17,43,5
2022/4/16 5:00,28,10,28,18,44,5
2022/4/16 6:00,27,10,24,15,41,5
2022/4/16 7:00,18,10,5,0,35,5
2022/4/16 8:00,4,10,-22,-20,28,5
2022/4/16 9:00,-7,11,-36,-31,29,5
2022/4/16 10:00,-8,10,-42,-35,28,5
2022/4/16 11:00,-9,10,-43,-35,27,5
2022/4/16 12:00,-10,10,-44,-36,26,5
2022/4/16 13:00,-10,10,-43,-36,25,5
2022/4/16 14:00,-9,11,-41,-34,25,5
2022/4/16 15:00,-7,11,-35,-29,25,5
2022/4/16 16:00,1,10,-20,-20,28,5
2022/4/16 17:00,12,10,1,-4,33,5
2022/4/16 18:00,23,10,22,13,37,5
2022/4/16 19:00,27,10,30,19,40,6
2022/4/16 20:00,27,10,30,19,41,6
2022/4/16 21:00,27,10,30,19,39,6
2022/4/16 22:00,27,10,29,19,37,6
2022/4/16 23:00,27,10,27,18,35,5
2022/4/17 0:00,28,10,27,17,35,5
2022/4/17 1:00,27,10,27,18,35,5
2022/4/17 2:00,27,10,28,18,37,5
2022/4/17 3:00,27,10,29,19,39,5
2022/4/17 4:00,27,10,29,19,41,5
2022/4/17 5:00,27,10,28,18,41,5
2022/4/17 6:00,24,10,24,15,38,5
2022/4/17 7:00,16,10,7,3,31,5
2022/4/17 8:00,7,10,-9,-10,24,5
2022/4/17 9:00,7,10,-16,-15,26,5
2022/4/17 10:00,-1,10,-28,-25,24,5
2022/4/17 11:00,-2,10,-33,-30,25,5
2022/4/17 12:00,1,11,-16,-14,26,5
2022/4/17 13:00,8,11,-5,-7,29,5
2022/4/17 14:00,0,11,1,-5,34,5
2022/4/17 15:00,9,11,4,-1,33,5
2022/4/17 16:00,17,11,-1,-3,29,5
2022/4/17 17:00,21,10,19,12,33,5
2022/4/17 18:00,25,10,27,17,36,5
2022/4/17 19:00,27,10,32,20,40,6
2022/4/17 20:00,27,11,32,20,41,6
2022/4/17 21:00,26,10,31,20,39,6
2022/4/17 22:00,26,10,30,20,37,5
2022/4/17 23:00,26,10,29,20,34,5
2022/4/18 0:00,27,10,27,18,35,5
2022/4/18 1:00,27,10,28,18,35,5
2022/4/18 2:00,27,10,30,20,36,5
2022/4/18 3:00,27,10,30,20,39,5
2022/4/18 4:00,27,10,30,19,42,5
2022/4/18 5:00,26,10,30,19,43,5
2022/4/18 6:00,26,10,26,16,41,5
2022/4/18 7:00,22,10,16,8,36,5
2022/4/18 8:00,21,10,6,1,34,5
2022/4/18 9:00,15,11,-22,-19,38,6
2022/4/18 10:00,15,11,-22,-19,39,7
2022/4/18 11:00,13,11,-30,-26,35,7
2022/4/18 12:00,2,11,-27,-22,34,7
2022/4/18 13:00,-2,11,-30,-28,30,6
2022/4/18 14:00,2,11,-26,-23,33,6
2022/4/18 15:00,12,11,-10,-11,38,6
2022/4/18 16:00,21,11,5,0,40,6
2022/4/18 17:00,29,11,19,11,43,7
2022/4/18 18:00,30,10,29,19,43,7
2022/4/18 19:00,31,10,33,21,44,7
2022/4/18 20:00,31,10,32,20,44,7
2022/4/18 21:00,30,10,31,19,41,6
2022/4/18 22:00,30,10,29,19,39,6
2022/4/18 23:00,29,10,28,18,35,5
2022/4/19 0:00,30,10,28,18,36,5
2022/4/19 1:00,29,10,27,18,35,5
2022/4/19 2:00,29,10,28,19,36,5
2022/4/19 3:00,29,10,28,19,39,5
2022/4/19 4:00,29,10,26,16,42,5
2022/4/19 5:00,29,10,28,18,42,5
2022/4/19 6:00,27,10,24,14,40,5
2022/4/19 7:00,19,10,3,-1,34,5
2022/4/19 8:00,8,10,-17,-15,29,5
2022/4/19 9:00,-1,11,-32,-27,31,6
2022/4/19 10:00,-3,11,-40,-34,31,6
2022/4/19 11:00,-3,11,-41,-34,30,6
2022/4/19 12:00,-4,11,-42,-35,29,6
2022/4/19 13:00,-5,11,-43,-35,27,6
2022/4/19 14:00,-4,11,-41,-34,29,6
2022/4/19 15:00,-2,11,-34,-30,30,6
2022/4/19 16:00,6,11,-18,-18,33,6
2022/4/19 17:00,17,11,0,-6,37,6
2022/4/19 18:00,28,11,21,12,39,6
2022/4/19 19:00,31,10,29,18,42,6
2022/4/19 20:00,31,10,30,18,42,7
2022/4/19 21:00,30,10,30,19,40,6
2022/4/19 22:00,30,10,29,19,37,6
2022/4/19 23:00,30,10,28,19,35,5
2022/4/20 0:00,31,10,27,18,35,5
2022/4/20 1:00,30,10,26,18,34,5
2022/4/20 2:00,29,10,27,17,36,5
2022/4/20 3:00,29,10,29,19,39,5
2022/4/20 4:00,29,10,29,19,41,5
2022/4/20 5:00,29,10,28,18,41,5
2022/4/20 6:00,27,10,24,14,39,5
2022/4/20 7:00,18,10,13,7,33,5
2022/4/20 8:00,10,10,0,-3,31,5
2022/4/20 9:00,9,10,-21,-21,38,6
2022/4/20 10:00,2,11,-34,-30,35,6
2022/4/20 11:00,-3,11,-40,-33,31,6
2022/4/20 12:00,-4,11,-41,-34,30,6
2022/4/20 13:00,-5,11,-41,-34,27,6
2022/4/20 14:00,-3,11,-38,-32,30,6
2022/4/20 15:00,0,11,-31,-26,31,6
2022/4/20 16:00,8,11,-19,-19,33,6
2022/4/20 17:00,18,11,0,-6,37,6
2022/4/20 18:00,27,11,18,9,40,6
2022/4/20 19:00,31,11,26,15,43,6
2022/4/20 20:00,31,10,27,15,43,7
2022/4/20 21:00,30,10,28,17,41,6
2022/4/20 22:00,30,10,28,18,38,6
2022/4/20 23:00,29,10,29,20,35,5
2022/4/21 0:00,30,10,30,21,35,5
2022/4/21 1:00,29,10,29,20,34,5
2022/4/21 2:00,29,10,27,18,36,5
2022/4/21 3:00,28,10,29,19,39,5
2022/4/21 4:00,29,10,29,19,41,5
2022/4/21 5:00,29,10,29,19,42,5
2022/4/21 6:00,27,10,24,15,39,5
2022/4/21 7:00,20,10,5,1,34,5
2022/4/21 8:00,8,11,-16,-15,29,5
2022/4/21 9:00,-2,11,-31,-26,30,6
2022/4/21 10:00,-3,11,-38,-32,30,6
2022/4/21 11:00,-4,11,-44,-37,29,6
2022/4/21 12:00,-4,11,-46,-38,29,6
2022/4/21 13:00,-4,11,-45,-37,26,6
2022/4/21 14:00,-4,11,-42,-35,29,6
2022/4/21 15:00,-1,11,-33,-28,30,6
2022/4/21 16:00,8,11,-14,-14,33,6
2022/4/21 17:00,18,11,5,-1,37,6
2022/4/21 18:00,27,11,23,14,38,6
2022/4/21 19:00,31,11,30,19,41,6
2022/4/21 20:00,31,11,31,20,42,7
2022/4/21 21:00,30,11,31,20,40,6
2022/4/21 22:00,29,10,29,19,37,6
2022/4/21 23:00,29,10,28,20,34,5
2022/4/22 0:00,30,10,27,19,33,5
2022/4/22 1:00,29,10,26,18,32,5
2022/4/22 2:00,29,10,27,18,34,5
2022/4/22 3:00,29,10,29,19,37,5
2022/4/22 4:00,29,10,28,19,39,5
2022/4/22 5:00,28,10,29,19,40,5
2022/4/22 6:00,29,11,27,18,38,5
2022/4/22 7:00,28,11,21,12,35,5
2022/4/22 8:00,27,11,15,8,35,5
2022/4/22 9:00,24,11,11,5,38,6
2022/4/22 10:00,21,11,0,-6,41,7
2022/4/22 11:00,19,11,-17,-16,41,7
2022/4/22 12:00,13,11,-6,-11,40,7
2022/4/22 13:00,13,11,-20,-19,35,6
2022/4/22 14:00,9,11,-17,-18,35,6
2022/4/22 15:00,7,11,-16,-17,35,6
2022/4/22 16:00,10,11,11,7,37,6
2022/4/22 17:00,21,11,21,13,40,6
2022/4/22 18:00,30,11,25,14,42,7
2022/4/22 19:00,30,11,28,16,43,7
2022/4/22 20:00,30,11,28,16,43,7
2022/4/22 21:00,29,10,26,15,40,6
2022/4/22 22:00,29,10,21,11,37,6
2022/4/22 23:00,29,10,20,10,34,5
2022/4/23 0:00,30,10,23,14,34,5
2022/4/23 1:00,29,10,26,17,33,5
2022/4/23 2:00,28,10,25,17,34,5
2022/4/23 3:00,28,10,28,19,36,5
2022/4/23 4:00,28,10,28,19,39,5
2022/4/23 5:00,28,10,28,19,39,5
2022/4/23 6:00,26,10,24,16,36,5
2022/4/23 7:00,20,10,14,8,31,4
2022/4/23 8:00,14,11,-10,-10,27,4
2022/4/23 9:00,6,11,-22,-19,27,5
2022/4/23 10:00,-5,10,-40,-33,25,5
2022/4/23 11:00,-6,11,-41,-32,25,5
2022/4/23 12:00,4,11,-37,-31,29,5
2022/4/23 13:00,5,11,-32,-32,28,5
2022/4/23 14:00,18,11,-24,-21,27,5
2022/4/23 15:00,10,11,-11,-8,28,5
2022/4/23 16:00,11,11,1,-1,29,5
2022/4/23 17:00,18,11,14,8,32,5
2022/4/23 18:00,25,11,24,15,35,5
2022/4/23 19:00,27,11,29,18,38,6
2022/4/23 20:00,28,11,27,16,39,6
2022/4/23 21:00,27,10,26,16,38,6
2022/4/23 22:00,27,10,25,16,36,6
2022/4/23 23:00,27,10,24,15,33,5
2022/4/24 0:00,28,10,24,15,33,5
2022/4/24 1:00,27,10,24,15,32,5
2022/4/24 2:00,27,10,25,16,34,5
2022/4/24 3:00,27,10,26,17,37,5
2022/4/24 4:00,27,10,27,17,39,5
2022/4/24 5:00,26,10,26,17,39,5
2022/4/24 6:00,24,10,19,11,35,5
2022/4/24 7:00,15,10,-1,-4,29,4
2022/4/24 8:00,3,10,-21,-19,23,4
2022/4/24 9:00,2,10,-33,-28,23,4
2022/4/24 10:00,-7,11,-39,-33,23,5
2022/4/24 11:00,-5,11,-43,-35,21,5
2022/4/24 12:00,-10,11,-45,-37,21,5
2022/4/24 13:00,-11,11,-38,-30,21,5
2022/4/24 14:00,-10,11,-40,-32,21,5
2022/4/24 15:00,-8,11,-36,-30,22,5
2022/4/24 16:00,1,11,-19,-18,25,5
2022/4/24 17:00,11,11,0,-5,30,5
2022/4/24 18:00,22,10,19,10,34,5
2022/4/24 19:00,26,10,28,17,38,5
2022/4/24 20:00,27,11,29,17,39,6
2022/4/24 21:00,26,10,28,17,38,5
2022/4/24 22:00,26,10,27,17,35,5
2022/4/24 23:00,26,10,25,16,33,5
2022/4/25 0:00,27,10,23,15,33,5
2022/4/25 1:00,26,10,23,15,32,4
2022/4/25 2:00,26,10,23,14,33,5
2022/4/25 3:00,26,10,24,15,36,5
2022/4/25 4:00,26,10,26,16,39,5
2022/4/25 5:00,26,10,26,16,39,5
2022/4/25 6:00,24,10,18,11,36,5
2022/4/25 7:00,19,10,8,3,32,5
2022/4/25 8:00,9,11,-8,-9,28,5
2022/4/25 9:00,-2,11,-32,-26,29,6
2022/4/25 10:00,-4,11,-37,-30,29,6
2022/4/25 11:00,-5,11,-39,-32,28,6
2022/4/25 12:00,-3,11,-29,-24,30,6
2022/4/25 13:00,-4,11,-34,-29,28,6
2022/4/25 14:00,-4,11,-40,-33,28,6
2022/4/25 15:00,0,11,-34,-29,29,6
2022/4/25 16:00,11,11,-13,-14,33,6
2022/4/25 17:00,18,11,6,1,35,6
2022/4/25 18:00,27,11,23,14,37,6
2022/4/25 19:00,30,11,29,18,40,6
2022/4/25 20:00,30,11,29,18,40,6
2022/4/25 21:00,29,10,29,18,38,6
2022/4/25 22:00,29,10,28,18,36,5
2022/4/25 23:00,29,10,26,17,33,5
2022/4/26 0:00,30,10,25,17,32,5
2022/4/26 1:00,29,10,25,17,31,4
2022/4/26 2:00,28,10,25,17,33,4
2022/4/26 3:00,28,10,26,17,36,5
2022/4/26 4:00,28,10,27,18,38,5
2022/4/26 5:00,27,10,27,18,38,5
2022/4/26 6:00,25,10,21,13,36,5
2022/4/26 7:00,19,11,12,6,32,5
2022/4/26 8:00,16,11,-1,-3,30,5
2022/4/26 9:00,13,11,-8,-7,34,6
2022/4/26 10:00,12,11,-16,-13,33,6
2022/4/26 11:00,16,11,-4,-6,33,6
2022/4/26 12:00,16,11,-10,-14,36,6
2022/4/26 13:00,34,11,-1,-7,38,6
2022/4/26 14:00,39,11,10,4,40,6
2022/4/26 15:00,24,11,16,9,40,6
2022/4/26 16:00,26,11,16,9,40,6
2022/4/26 17:00,28,11,17,8,41,6
2022/4/26 18:00,30,11,22,12,41,6
2022/4/26 19:00,30,11,22,11,42,6
2022/4/26 20:00,30,11,24,12,42,6
2022/4/26 21:00,30,10,23,13,39,6
2022/4/26 22:00,29,10,21,11,37,6
2022/4/26 23:00,29,10,20,11,34,5
2022/4/27 0:00,30,10,21,13,33,5
2022/4/27 1:00,29,10,24,15,31,4
2022/4/27 2:00,28,10,25,16,33,4
2022/4/27 3:00,29,10,25,16,36,5
2022/4/27 4:00,28,10,26,17,38,5
2022/4/27 5:00,28,10,26,16,39,5
2022/4/27 6:00,28,10,26,16,37,5
2022/4/27 7:00,28,11,19,10,34,5
2022/4/27 8:00,22,11,-7,-8,32,5
2022/4/27 9:00,17,11,-36,-30,30,6
2022/4/27 10:00,8,11,-40,-33,31,6
2022/4/27 11:00,4,11,-40,-33,28,6
2022/4/27 12:00,-2,11,-40,-32,28,6
2022/4/27 13:00,-6,11,-41,-34,25,6
2022/4/27 14:00,-5,11,-38,-32,28,6
2022/4/27 15:00,-3,11,-31,-25,29,6
2022/4/27 16:00,6,11,-20,-19,31,6
2022/4/27 17:00,16,11,2,-3,35,6
2022/4/27 18:00,27,11,20,11,37,6
2022/4/27 19:00,30,11,28,17,40,6
2022/4/27 20:00,30,10,29,18,41,6
2022/4/27 21:00,30,10,27,17,39,6
2022/4/27 22:00,29,10,25,15,36,6
2022/4/27 23:00,29,10,24,15,33,5
2022/4/28 0:00,29,10,23,14,32,5
2022/4/28 1:00,29,10,23,15,31,4
2022/4/28 2:00,28,10,24,16,33,4
2022/4/28 3:00,28,10,26,17,36,5
2022/4/28 4:00,28,10,26,16,38,5
2022/4/28 5:00,28,10,25,16,38,5
2022/4/28 6:00,26,10,19,10,36,5
2022/4/28 7:00,17,11,0,-4,30,4
2022/4/28 8:00,7,11,-17,-16,26,5
2022/4/28 9:00,-3,11,-32,-29,28,6
2022/4/28 10:00,-3,11,-38,-33,29,6
2022/4/28 11:00,2,11,-39,-33,28,6
2022/4/28 12:00,-2,11,-43,-35,28,6
2022/4/28 13:00,-5,11,-44,-36,25,6
2022/4/28 14:00,-4,11,-38,-31,28,6
2022/4/28 15:00,0,11,-28,-24,29,6
2022/4/28 16:00,7,11,-13,-13,32,6
2022/4/28 17:00,16,11,5,0,36,6
2022/4/28 18:00,26,11,23,14,37,6
2022/4/28 19:00,30,11,30,19,40,6
2022/4/28 20:00,30,11,30,19,40,6
2022/4/28 21:00,29,10,29,19,39,6
2022/4/28 22:00,28,10,26,16,37,6
2022/4/28 23:00,28,10,26,17,33,5
2022/4/29 0:00,29,10,26,17,33,5
2022/4/29 1:00,28,10,26,18,32,5
2022/4/29 2:00,27,10,26,17,33,5
2022/4/29 3:00,28,10,27,18,36,5
2022/4/29 4:00,28,10,27,18,39,5
2022/4/29 5:00,27,10,27,17,38,5
2022/4/29 6:00,23,10,18,11,34,4
2022/4/29 7:00,14,10,7,2,29,4
2022/4/29 8:00,5,10,-14,-13,25,4
2022/4/29 9:00,-2,11,-22,-18,25,5
2022/4/29 10:00,1,11,-21,-19,27,5
2022/4/29 11:00,0,11,-21,-19,27,5
2022/4/29 12:00,0,11,-16,-15,28,5
2022/4/29 13:00,5,10,-12,-13,29,5
2022/4/29 14:00,9,11,-9,-10,31,5
2022/4/29 15:00,15,11,1,-2,31,5
2022/4/29 16:00,16,11,10,5,32,5
2022/4/29 17:00,20,11,18,11,34,5
2022/4/29 18:00,25,10,24,15,36,5
2022/4/29 19:00,27,11,29,18,39,6
2022/4/29 20:00,27,10,30,19,40,6
2022/4/29 21:00,27,10,29,19,38,6
2022/4/29 22:00,27,10,28,18,36,5
2022/4/29 23:00,26,10,27,18,33,5
2022/4/30 0:00,28,10,26,18,33,5
2022/4/30 1:00,27,10,26,18,32,5
2022/4/30 2:00,26,10,27,18,33,5
2022/4/30 3:00,26,10,27,18,36,5
2022/4/30 4:00,26,10,27,17,38,5
2022/4/30 5:00,25,10,27,17,38,5
2022/4/30 6:00,22,10,19,12,35,4
2022/4/30 7:00,12,10,-2,-4,28,4
2022/4/30 8:00,1,10,-23,-19,23,4
2022/4/30 9:00,-9,10,-37,-31,23,5
2022/4/30 10:00,-10,11,-42,-35,24,5